Starlink 11142

operational
NORAD ID: 59957 Int'l Des: 2024-107 Owner: SPXS Country: US Constellation: starlink
LEOCIRCULAR

关于 Starlink 11142

正在加载描述...

实时位置

正在加载3D地球...

即将过境

高度历史

Altitude vs Time

uPlot chart will show altitude changes over time

两行轨道根数

1 59957U 24107N 25353.10626052 .00001163 00000-0 14463-4 0 9992
2 59957 53.1597 288.1991 0001350 92.7197 267.3976 15.69709937 89507
Epoch: Dec 19, 2025 • Age: 14 hours

当前状态

高度 359.6 km
速度 7.70 km/s
星下点 12.13°N, 112.45°E
发射日期 Jun 5, 2024
运行时间 1.5 years
类型 internet

技术详情

分类 Payload
质量 960.00 kg
干质量 910.00 kg
总质量 960.00 kg
长度 0.30 m
直径 4.10 m
跨度 29.00 m
形状 Box + pan
制造商 SPXS
平台类型 Starlink V2MD
阶段状态 In Orbit
所有者/国家 SPXS/US

大型星座

Loading constellations...